Powrót do katalogu

SL-8 R/B

AktywnyPO
NORAD 11379·ROCKET BODY·🇷🇺 Russia

Wystrzelony May 31, 1979 z Plesetsk Cosmodrome

Loading…

Następne Przeloty (najbliższe 24 godziny)

TLE

ŚwieżeSource: Space-Track

Epoka: Sep 14, 2026, 15:09 UTC

1 11379U 79046B   26257.63136927  .00000040  00000-0  24238-4 0  9993
2 11379  82.9455 316.4917 0022692 104.3624  49.2571 13.77781519338414

Śledź SL-8 R/B w czasie rzeczywistym z AllMySat

Download on the App Store